CW4498 Weather Reports


time (UTC)temp
F
wind
direction
speed
knots
gust
knots
rain 1hr
in
rain 24hr
in
rain mn
in
humidity
%
barometer
mb
20260904134556 72 107 0.0 2.6 0.00 0.00 0.00 31 1015.8
20260904133106 72 267 2.6 7.8 0.00 0.00 0.00 31 1015.5
20260904131555 71 275 3.5 10.4 0.00 0.00 0.00 32 1015.2
20260904130046 71 302 2.6 7.8 0.00 0.00 0.00 32 1015.1
20260904124545 71 294 3.5 9.6 0.00 0.00 0.00 32 1015.0
20260904123045 71 285 4.3 11.3 0.00 0.00 0.00 30 1014.7
20260904121544 71 271 5.2 14.8 0.00 0.00 0.00 30 1014.6
20260904120045 71 215 4.3 13.0 0.00 0.00 0.00 31 1014.4
20260904114541 70 224 0.9 9.6 0.00 0.00 0.00 31 1014.4
20260904113040 69 260 1.7 7.8 0.00 0.00 0.00 31 1014.4
20260904111536 69 142 1.7 6.1 0.00 0.00 0.00 32 1014.3
20260904110033 65 294 1.7 4.3 0.00 0.00 0.00 42 1014.3
20260904104532 65 159 0.0 3.5 0.00 0.00 0.00 46 1014.1
20260904103032 63 276 0.9 2.6 0.00 0.00 0.00 50 1013.9
20260904101531 63 277 0.9 1.7 0.00 0.00 0.00 51 1013.9
20260904100031 62 279 0.9 2.6 0.00 0.00 0.00 51 1013.7
20260904094530 62 272 0.0 2.6 0.00 0.00 0.00 52 1013.6
20260904093030 62 211 0.0 3.5 0.00 0.00 0.00 51 1013.4
20260904091528 61 114 0.0 1.7 0.00 0.00 0.00 53 1013.2
20260904090026 62 271 0.0 1.7 0.00 0.00 0.00 52 1013.3
20260904084526 62 271 0.0 0.9 0.00 0.00 0.00 52 1013.4
20260904083024 62 271 0.0 1.7 0.00 0.00 0.00 52 1013.4
20260904081522 63 271 0.0 1.7 0.00 0.00 0.00 51 1013.4
20260904080025 64 271 0.0 0.9 0.00 0.00 0.00 48 1013.5
20260904074526 64 271 0.0 1.7 0.00 0.00 0.00 48 1013.5
20260904073016 64 271 0.0 0.9 0.00 0.00 0.00 48 1013.6
20260904071515 64 271 0.0 0.9 0.00 0.00 0.00 49 1013.6
20260904070014 64 271 0.0 0.9 0.00 0.00 0.00 48 1013.9
20260904064510 66 271 0.0 1.7 0.00 0.00 0.00 46 1014.0
20260904063014 66 271 0.0 1.7 0.00 0.00 0.00 46 1014.1
20260904061518 66 221 0.0 0.9 0.00 0.00 0.00 45 1014.1
20260904060008 67 221 0.0 0.9 0.00 0.00 0.00 44 1014.3
20260904054509 68 121 0.0 2.6 0.00 0.00 0.00 42 1014.4
20260904053005 69 112 0.0 2.6 0.00 0.00 0.00 41 1014.4
20260904051511 69 273 0.0 3.5 0.00 0.00 0.00 40 1014.7
20260904050002 68 238 0.0 0.9 0.00 0.00 0.00 39 1014.8
20260904044501 69 239 0.0 0.9 0.00 0.00 0.00 37 1014.9
20260904043103 70 167 0.0 1.7 0.00 0.00 0.00 36 1015.0
20260904043003 70 167 0.0 1.7 0.00 0.00 0.00 35 1015.0
20260904041612 71 100 0.0 3.5 0.00 0.00 0.00 33 1015.2
20260904034608 72 93 0.9 2.6 0.00 0.00 0.00 28 1015.1
20260904033100 73 123 0.0 2.6 0.00 0.00 0.00 27 1014.8
20260904031558 73 116 0.9 2.6 0.00 0.00 0.00 26 1014.5
20260904030058 74 256 1.7 4.3 0.00 0.00 0.00 25 1014.4
20260904024557 73 291 0.0 4.3 0.00 0.00 0.00 25 1014.3
20260904023057 73 180 0.0 3.5 0.00 0.00 0.00 25 1013.9
20260904021556 74 149 0.9 2.6 0.00 0.00 0.00 24 1013.7
20260904020056 74 245 0.0 1.7 0.00 0.00 0.00 24 1013.6
20260904014611 74 188 0.0 2.6 0.00 0.00 0.00 25 1013.4
20260904013057 74 148 0.0 2.6 0.00 0.00 0.00 24 1013.2
20260904011606 76 113 0.0 1.7 0.00 0.00 0.00 24 1013.1
20260904010054 77 136 0.9 6.1 0.00 0.00 0.00 23 1013.0
20260904004554 79 119 1.7 6.1 0.00 0.00 0.00 22 1013.0
20260904003053 81 132 2.6 7.8 0.00 0.00 0.00 20 1012.9
20260904001553 83 194 0.9 5.2 0.00 0.00 0.00 19 1013.0
20260904000057 84 233 1.7 6.1 0.00 0.00 0.00 18 1013.0
20260903234551 85 108 1.7 6.1 0.00 0.00 0.00 17 1013.1
20260903233051 85 268 1.7 6.1 0.00 0.00 0.00 17 1013.0
20260903231602 85 196 1.7 7.0 0.00 0.00 0.00 17 1013.1
20260903230048 85 137 2.6 7.0 0.00 0.00 0.00 17 1013.2
20260903224548 84 109 4.3 9.6 0.00 0.00 0.00 19 1013.1
20260903223057 84 142 0.0 3.5 0.00 0.00 0.00 21 1013.2
20260903221547 82 121 3.5 11.3 0.00 0.00 0.00 21 1013.4
20260903220101 82 128 4.3 8.7 0.00 0.00 0.00 21 1013.4
20260903214546 82 137 1.7 5.2 0.00 0.00 0.00 20 1013.7
20260903213045 84 120 4.3 8.7 0.00 0.00 0.00 18 1013.7
20260903211545 85 123 2.6 7.8 0.00 0.00 0.00 18 1013.7
20260903210043 85 115 2.6 8.7 0.00 0.00 0.00 17 1013.9
20260903204541 84 115 3.5 9.6 0.00 0.00 0.00 18 1014.2
20260903203040 84 119 0.9 4.3 0.00 0.00 0.00 19 1014.4
20260903201540 83 71 2.6 8.7 0.00 0.00 0.00 19 1014.4
20260903200046 84 165 3.5 7.8 0.00 0.00 0.00 19 1014.6
20260903194546 82 96 0.0 6.1 0.00 0.00 0.00 21 1014.7
20260903193038 82 123 3.5 7.0 0.00 0.00 0.00 20 1015.0
20260903191553 82 122 1.7 7.0 0.00 0.00 0.00 21 1015.0
20260903190038 84 83 2.6 7.0 0.00 0.00 0.00 19 1015.1
20260903184535 82 123 1.7 7.0 0.00 0.00 0.00 21 1015.3
20260903183049 82 132 0.9 7.0 0.00 0.00 0.00 22 1015.6
20260903181532 82 101 0.0 4.3 0.00 0.00 0.00 23 1015.7
20260903180036 81 123 0.9 2.6 0.00 0.00 0.00 24 1016.0
20260903174531 81 113 0.9 7.8 0.00 0.00 0.00 23 1016.2
20260903173030 81 133 0.0 3.5 0.00 0.00 0.00 24 1016.2
20260903171528 79 260 0.9 3.5 0.00 0.00 0.00 25 1016.3
20260903170025 78 122 1.7 5.2 0.00 0.00 0.00 27 1016.3
20260903164524 78 104 1.7 5.2 0.00 0.00 0.00 27 1016.4
20260903163021 76 128 2.6 6.1 0.00 0.00 0.00 28 1016.4
20260903161531 76 105 0.9 7.0 0.00 0.00 0.00 28 1016.5
20260903160022 76 119 1.7 5.2 0.00 0.00 0.00 28 1016.5
20260903154517 74 90 1.7 6.1 0.00 0.00 0.00 30 1016.6
20260903153015 74 109 2.6 5.2 0.00 0.00 0.00 30 1016.6
20260903151515 73 113 0.9 5.2 0.00 0.00 0.00 31 1016.7
20260903150014 72 135 0.0 4.3 0.00 0.00 0.00 32 1016.8
20260903144512 70 105 0.9 5.2 0.00 0.00 0.00 34 1016.8
20260903143012 68 219 0.0 1.7 0.00 0.00 0.00 36 1016.7
20260903141511 67 120 0.0 1.7 0.00 0.00 0.00 38 1016.7
20260903140014 66 110 0.0 1.7 0.00 0.00 0.00 38 1016.6